Location: Newark
(52.1752°N, 10.4140°W)
Time: 17:45:15
(UTC+00:00)

N. Korean satellite - Pass Details

Date: 18 November 2019
Orbit: 455 x 506 km, 97.2° (Epoch: 10 December)

Event Time Altitude Azimuth Distance (km) Brightness Sun altitude
Rises 18:46:14 0° 209° (SSW) 2,566 10.8 -18.1°
Reaches altitude 10° 18:48:57 10° 231° (SW) 1,700 10.2 -18.5°
Maximum altitude 18:51:16 16° 271° (W) 1,383 9.9 -18.8°
Drops below altitude 10° 18:53:36 10° 310° (NW) 1,723 9.9 -19.2°
Sets 18:56:23 0° 333° (NNW) 2,620 10.6 -19.6°
